Regional Weather Roundup
Issued by NWS

Home | Current Version | Previous Version | Graphics & Text | Print | Product List | Glossary On
Versions: 1 2 3 4 5 6 7 8 9 10 11 12 13 14 15 16 17 18 19 20 21 22 23 24 25 26 27 28 29 30 31 32 33 34 35 36 37 38 39 40 41 42 43 44 45 46 47 48 49 50
644
ASUS43 KLSX 151007
RWRMO

WEATHER SUMMARY FOR MISSOURI
NATIONAL WEATHER SERVICE SPRINGFIELD MO
400 AM CST FRI DEC 15 2017

NOTE: "FAIR" INDICATES FEW OR NO CLOUDS BELOW 12,000 FEET WITH NO
       SIGNIFICANT WEATHER AND/OR OBSTRUCTIONS TO VISIBILITY.
       CURRENT SKY AND/OR WEATHER CONDITIONS ARE NOT AVAILABLE FOR
       CHILLICOTHE AND FARMINGTON.

MOZ001>031-035>038-043-044-053-054-151100-
...NORTHERN AND WESTERN MISSOURI...

CITY           SKY/WX    TMP DP  RH WIND       PRES   REMARKS
KANSAS CTY INT CLOUDY    35  30  82 W5        30.13R
KANSAS C DTWN  CLOUDY    38  30  73 W8        30.14R
LEE`S SUMMIT   CLOUDY    36  30  79 W7        30.12S
ST JOSEPH      CLOUDY    37  29  72 NW14      30.14R WCI  28
CHILLICOTHE      N/A     34  25  69 W5        30.11S WCI  30
KIRKSVILLE     CLOUDY    31  28  89 W6        30.07S WCI  25

$$
MOZ066>068-077>081-088>096-101>105-151100-
...SOUTHWEST MISSOURI...

CITY           SKY/WX    TMP DP  RH WIND       PRES   REMARKS
SPRINGFIELD    CLOUDY    32  26  78 SW7       30.11S WCI  26
JOPLIN         CLOUDY    35  29  78 W7        30.16R WCI  29
BRANSON        CLOUDY    34  25  69 CALM      30.14S

$$
MOZ032>034-039>042-045>050-055>058-069>072-151100-
...CENTRAL MISSOURI...

CITY           SKY/WX    TMP DP  RH WIND       PRES   REMARKS
COLUMBIA       CLOUDY    28  22  78 SW6       30.09F WCI  22
JEFFERSON CITY MOCLDY    26  22  84 CALM      30.12F
ROLLA          MOCLDY    27  22  81 W5        30.11S WCI  22
SEDALIA        CLOUDY    34  27  75 SW7       30.12S WCI  28
WHITEMAN AFB   CLOUDY    33  25  73 W5        30.07S WCI  28
WARRENSBURG    CLOUDY    32  27  80 W6        30.12S WCI  26
OSAGE BEACH    CLOUDY    32  26  78 CALM      30.13S

$$
MOZ051-052-059>065-151100-
...EAST CENTRAL MISSOURI...

CITY           SKY/WX    TMP DP  RH WIND       PRES   REMARKS
ST LOUIS INTL  CLOUDY    31  22  69 SW10      30.10F WCI  22
SPIRIT OF STL  CLOUDY    31  23  72 SW7       30.10F WCI  24
ST CHARLES     CLOUDY    31  21  66 SW5       30.10F WCI  26

$$
MOZ072>076-082>087-097>100-106>115-151100-
...SOUTH CENTRAL AND SOUTHEAST MISSOURI...

CITY           SKY/WX    TMP DP  RH WIND       PRES   REMARKS
CAPE GIRARDEAU CLOUDY    32  21  64 N7        30.13F WCI  26
FARMINGTON     CLOUDY    29  22  75 SW3       30.11F
POPLAR BLUFF   CLOUDY    32  26  78 CALM      30.14S
WEST PLAINS    MOCLDY    27  21  78 CALM      30.12F

$$



USA.gov is the U.S. government's official web portal to all federal, state and local government web resources and services.